Location: *
(34.6903°N, 135.5184°E)
Time: 21:28:20
(UTC+00:00)

Lacrosse 5 - Pass Details

Date: 22 September 2019
Orbit: 715 x 724 km, 57.0° (Epoch: 08 October)

Event Time Altitude Azimuth Distance (km) Brightness Sun altitude
Exits shadow 18:39:43 - 337° (NNW) 2,256 4.4 -26.3°
Reaches altitude 10° 18:39:53 10° 338° (NNW) 2,200 4.3 -26.2°
Maximum altitude 18:44:27 33° 42° (NE) 1,185 3.4 -25.4°
Drops below altitude 10° 18:49:01 10° 107° (ESE) 2,196 5.1 -24.5°
Sets 18:51:36 0° 117° (ESE) 3,115 5.8 -24.0°
